DW9161 Weather Reports


Display with metric or nautical units.
time (UTC)temp
F
wind
direction
speed
MPH
gust
MPH
rain 1hr
in
rain 24hr
in
rain mn
in
humidity
%
barometer
mb
20220629064037 72 198 0.0 3.0 0.00 0.00 0.00 70 1019.6
20220629063553 72 198 1.0 3.0 0.00 0.00 0.00 69 1019.6
20220629063042 72 198 1.0 3.0 0.00 0.00 0.00 69 1019.6
20220629062540 72 207 1.0 3.0 0.00 0.00 0.00 69 1019.6
20220629062037 72 184 0.0 2.0 0.00 0.00 0.00 69 1019.5
20220629061536 73 184 1.0 3.0 0.00 0.00 0.00 69 1019.5
20220629061033 73 184 1.0 3.0 0.00 0.00 0.00 68 1019.5
20220629060558 73 183 0.0 3.0 0.00 0.00 0.00 68 1019.5
20220629060036 73 193 1.0 3.0 0.00 0.00 0.00 68 1019.4
20220629055533 73 181 1.0 4.0 0.00 0.00 0.00 67 1019.3
20220629055032 73 190 1.0 3.0 0.00 0.00 0.00 67 1019.4
20220629054532 73 191 1.0 3.0 0.00 0.00 0.00 67 1019.4
20220629054031 74 192 1.0 2.0 0.00 0.00 0.00 66 1019.4
20220629053548 74 192 1.0 2.0 0.00 0.00 0.00 65 1019.4
20220629053046 74 192 1.0 3.0 0.00 0.00 0.00 65 1019.3
20220629052543 74 199 1.0 4.0 0.00 0.00 0.00 64 1019.3
20220629052041 75 192 1.0 4.0 0.00 0.00 0.00 64 1019.2
20220629051537 75 157 1.0 3.0 0.00 0.00 0.00 63 1019.3
20220629051035 75 186 2.0 3.0 0.00 0.00 0.00 63 1019.3
20220629050602 75 176 2.0 3.0 0.00 0.00 0.00 63 1019.2
20220629050040 76 171 1.0 5.0 0.00 0.00 0.00 62 1019.2
20220629045558 76 191 2.0 7.0 0.00 0.00 0.00 62 1019.2
20220629045030 76 184 1.0 7.0 0.00 0.00 0.00 62 1019.2
20220629044548 76 187 3.0 5.0 0.00 0.00 0.00 62 1019.1
20220629044045 76 194 3.0 5.0 0.00 0.00 0.00 61 1019.1
20220629043541 76 177 2.0 6.0 0.00 0.00 0.00 61 1019.0
20220629043040 76 164 2.0 6.0 0.00 0.00 0.00 61 1019.0
20220629042537 76 198 1.0 5.0 0.00 0.00 0.00 61 1019.0
20220629042035 77 195 2.0 5.0 0.00 0.00 0.00 61 1018.9
20220629041532 77 191 1.0 4.0 0.00 0.00 0.00 60 1018.8
20220629041029 77 193 1.0 6.0 0.00 0.00 0.00 60 1018.8
20220629040558 77 183 2.0 4.0 0.00 0.00 0.00 60 1018.9
20220629040037 77 204 2.0 4.0 0.00 0.00 0.00 60 1018.8
20220629035040 77 188 3.0 8.0 0.00 0.00 0.00 59 1018.9
20220629034537 78 186 2.0 8.0 0.00 0.00 0.00 59 1018.9
20220629034034 78 198 2.0 5.0 0.00 0.00 0.00 59 1018.8
20220629033532 78 188 1.0 3.0 0.00 0.00 0.00 58 1018.8
20220629033030 78 199 1.0 3.0 0.00 0.00 0.00 58 1018.7
20220629032547 79 190 1.0 5.0 0.00 0.00 0.00 58 1018.7
20220629032045 79 197 2.0 6.0 0.00 0.00 0.00 58 1018.6
20220629031543 79 115 2.0 6.0 0.00 0.00 0.00 57 1018.7
20220629031032 79 185 2.0 6.0 0.00 0.00 0.00 57 1018.6
20220629030601 79 214 3.0 7.0 0.00 0.00 0.00 57 1018.6
20220629030040 79 167 3.0 6.0 0.00 0.00 0.00 57 1018.5
20220629025537 79 191 2.0 4.0 0.00 0.00 0.00 57 1018.5
20220629025035 79 182 1.0 2.0 0.00 0.00 0.00 57 1018.3
20220629024534 80 182 1.0 2.0 0.00 0.00 0.00 57 1018.2
20220629024030 80 182 1.0 3.0 0.00 0.00 0.00 56 1018.3
20220629023531 80 185 1.0 5.0 0.00 0.00 0.00 55 1018.3
20220629023049 81 198 1.0 5.0 0.00 0.00 0.00 54 1018.2
20220629022548 81 194 1.0 7.0 0.00 0.00 0.00 54 1018.1
20220629022046 81 193 3.0 7.0 0.00 0.00 0.00 54 1018.1
20220629021544 82 175 2.0 4.0 0.00 0.00 0.00 53 1018.1
20220629021042 82 193 2.0 5.0 0.00 0.00 0.00 53 1018.0
20220629020550 82 185 2.0 6.0 0.00 0.00 0.00 52 1018.0
20220629020048 82 191 2.0 8.0 0.00 0.00 0.00 52 1018.0
20220629015547 82 193 2.0 9.0 0.00 0.00 0.00 51 1018.0
20220629015044 83 195 2.0 9.0 0.00 0.00 0.00 51 1018.0
20220629014543 83 231 3.0 6.0 0.00 0.00 0.00 51 1018.0
20220629014040 83 221 3.0 5.0 0.00 0.00 0.00 50 1018.1
20220629013537 83 204 2.0 4.0 0.00 0.00 0.00 50 1018.1
20220629013034 84 198 2.0 4.0 0.00 0.00 0.00 50 1018.0
20220629012533 84 187 3.0 6.0 0.00 0.00 0.00 50 1018.0
20220629012031 84 205 3.0 6.0 0.00 0.00 0.00 49 1018.1
20220629011550 84 197 3.0 5.0 0.00 0.00 0.00 49 1018.0
20220629011030 84 185 3.0 5.0 0.00 0.00 0.00 49 1018.0
20220629010557 85 231 3.0 6.0 0.00 0.00 0.00 48 1018.0
20220629010037 85 198 3.0 6.0 0.00 0.00 0.00 48 1018.1
20220629005535 85 203 3.0 6.0 0.00 0.00 0.00 49 1018.0
20220629005034 85 211 2.0 5.0 0.00 0.00 0.00 48 1018.1
20220629004550 86 169 2.0 6.0 0.00 0.00 0.00 48 1018.1
20220629004047 86 191 3.0 7.0 0.00 0.00 0.00 46 1018.1
20220629003543 86 193 4.0 7.0 0.00 0.00 0.00 46 1018.1
20220629003041 87 238 4.0 7.0 0.00 0.00 0.00 45 1018.1
20220629002539 87 225 4.0 6.0 0.00 0.00 0.00 45 1018.1
20220629002036 87 176 2.0 6.0 0.00 0.00 0.00 45 1018.2
20220629001533 87 221 3.0 7.0 0.00 0.00 0.00 45 1018.2
20220629001031 87 181 3.0 8.0 0.00 0.00 0.00 44 1018.2
20220629000559 87 215 4.0 8.0 0.00 0.00 0.00 44 1018.2
20220629000039 87 228 4.0 8.0 0.00 0.00 0.00 43 1018.3
20220628235537 87 199 4.0 8.0 0.00 0.00 0.00 43 1018.3
20220628235034 88 219 3.0 7.0 0.00 0.00 0.00 44 1018.3
20220628234536 88 228 3.0 7.0 0.00 0.00 0.00 44 1018.3
20220628234035 88 233 3.0 8.0 0.00 0.00 0.00 44 1018.2
20220628233531 88 198 5.0 9.0 0.00 0.00 0.00 42 1018.2
20220628233029 88 236 5.0 9.0 0.00 0.00 0.00 42 1018.3
20220628232547 88 210 5.0 9.0 0.00 0.00 0.00 43 1018.3
20220628232045 88 243 4.0 9.0 0.00 0.00 0.00 42 1018.4
20220628231541 88 204 4.0 9.0 0.00 0.00 0.00 42 1018.3
20220628231041 88 233 4.0 8.0 0.00 0.00 0.00 43 1018.3
20220628230550 88 253 5.0 9.0 0.00 0.00 0.00 42 1018.4
20220628230030 88 220 6.0 8.0 0.00 0.00 0.00 42 1018.5
20220628225548 88 187 3.0 7.0 0.00 0.00 0.00 42 1018.5
20220628225045 88 181 4.0 7.0 0.00 0.00 0.00 42 1018.6
20220628224543 88 243 3.0 9.0 0.00 0.00 0.00 41 1018.6
20220628224042 88 205 5.0 9.0 0.00 0.00 0.00 41 1018.7
20220628223537 88 167 4.0 9.0 0.00 0.00 0.00 42 1018.7
20220628223035 88 186 4.0 7.0 0.00 0.00 0.00 42 1018.7
20220628222534 88 226 4.0 10.0 0.00 0.00 0.00 43 1018.8
20220628222035 88 239 4.0 11.0 0.00 0.00 0.00 43 1018.8
20220628221533 88 237 4.0 8.0 0.00 0.00 0.00 41 1018.8
20220628221032 88 198 3.0 7.0 0.00 0.00 0.00 41 1018.8
20220628220600 88 185 4.0 12.0 0.00 0.00 0.00 43 1018.8
20220628220040 88 226 4.0 12.0 0.00 0.00 0.00 41 1018.8
20220628215537 88 215 5.0 9.0 0.00 0.00 0.00 41 1018.9
20220628215032 88 236 5.0 9.0 0.00 0.00 0.00 41 1019.0
20220628214549 88 224 4.0 12.0 0.00 0.00 0.00 40 1018.9
20220628214048 88 225 7.0 12.0 0.00 0.00 0.00 41 1019.0
20220628213546 88 193 5.0 10.0 0.00 0.00 0.00 42 1019.0
20220628213045 88 232 5.0 10.0 0.00 0.00 0.00 40 1019.0
20220628212542 88 170 4.0 10.0 0.00 0.00 0.00 41 1019.1
20220628212039 88 221 5.0 10.0 0.00 0.00 0.00 39 1019.1
20220628211538 88 200 5.0 9.0 0.00 0.00 0.00 40 1019.2
20220628211037 88 226 5.0 12.0 0.00 0.00 0.00 41 1019.1
20220628210550 88 212 6.0 12.0 0.00 0.00 0.00 39 1019.1
20220628210049 88 211 4.0 13.0 0.00 0.00 0.00 40 1019.1
20220628205548 88 226 6.0 13.0 0.00 0.00 0.00 40 1019.1
20220628205045 88 227 6.0 12.0 0.00 0.00 0.00 40 1019.3
20220628204544 88 155 5.0 12.0 0.00 0.00 0.00 41 1019.3
20220628204041 88 161 4.0 12.0 0.00 0.00 0.00 41 1019.3
20220628203539 88 224 4.0 11.0 0.00 0.00 0.00 41 1019.2
20220628203035 88 232 6.0 11.0 0.00 0.00 0.00 40 1019.3
20220628202533 88 186 5.0 10.0 0.00 0.00 0.00 41 1019.3
20220628202030 88 158 5.0 10.0 0.00 0.00 0.00 40 1019.3
20220628201547 87 222 5.0 17.0 0.00 0.00 0.00 41 1019.3
20220628201045 87 231 5.0 17.0 0.00 0.00 0.00 40 1019.3
20220628200553 87 146 5.0 9.0 0.00 0.00 0.00 41 1019.2
20220628200031 86 212 4.0 9.0 0.00 0.00 0.00 42 1019.3
20220628195548 86 195 4.0 9.0 0.00 0.00 0.00 41 1019.5
20220628195046 86 185 5.0 9.0 0.00 0.00 0.00 42 1019.6
20220628194545 86 217 3.0 10.0 0.00 0.00 0.00 42 1019.8
20220628194042 86 221 6.0 10.0 0.00 0.00 0.00 41 1019.9
20220628193545 86 205 5.0 8.0 0.00 0.00 0.00 42 1019.9
20220628193041 86 193 5.0 12.0 0.00 0.00 0.00 42 1020.1
20220628192539 86 243 5.0 12.0 0.00 0.00 0.00 42 1020.1
20220628192037 86 229 6.0 12.0 0.00 0.00 0.00 42 1020.3
20220628191535 86 214 4.0 9.0 0.00 0.00 0.00 42 1020.6
20220628191032 86 244 4.0 11.0 0.00 0.00 0.00 41 1020.5
20220628190559 86 200 6.0 11.0 0.00 0.00 0.00 43 1020.6
20220628190037 86 209 5.0 12.0 0.00 0.00 0.00 42 1020.7
20220628185535 86 235 6.0 12.0 0.00 0.00 0.00 42 1020.8
20220628185033 85 200 4.0 10.0 0.00 0.00 0.00 44 1020.8
20220628184531 85 231 6.0 10.0 0.00 0.00 0.00 43 1020.9
20220628184050 85 234 4.0 11.0 0.00 0.00 0.00 44 1020.9
20220628183525 85 242 5.0 11.0 0.00 0.00 0.00 46 1021.0
20220628183034 85 253 5.0 11.0 0.00 0.00 0.00 48 1021.1
20220628182535 84 236 5.0 11.0 0.00 0.00 0.00 48 1021.1
20220628182034 84 238 3.0 9.0 0.00 0.00 0.00 50 1021.1
20220628181530 83 245 4.0 9.0 0.00 0.00 0.00 49 1021.2
20220628181048 83 238 4.0 9.0 0.00 0.00 0.00 50 1021.2
20220628180553 83 231 3.0 10.0 0.00 0.00 0.00 50 1021.2
20220628180031 83 240 6.0 10.0 0.00 0.00 0.00 48 1021.3
20220628175548 83 169 5.0 10.0 0.00 0.00 0.00 50 1021.3
20220628175045 82 242 4.0 9.0 0.00 0.00 0.00 49 1021.3
20220628174543 82 248 3.0 9.0 0.00 0.00 0.00 49 1021.3
20220628174041 81 202 5.0 9.0 0.00 0.00 0.00 50 1021.4
20220628173539 81 207 5.0 11.0 0.00 0.00 0.00 50 1021.4
20220628173037 80 182 4.0 12.0 0.00 0.00 0.00 51 1021.4
20220628172535 80 207 5.0 12.0 0.00 0.00 0.00 51 1021.4
20220628172033 79 160 3.0 9.0 0.00 0.00 0.00 53 1021.4
20220628171532 79 178 5.0 9.0 0.00 0.00 0.00 51 1021.6
20220628171048 79 165 4.0 10.0 0.00 0.00 0.00 50 1021.5
20220628170557 79 199 6.0 10.0 0.00 0.00 0.00 51 1021.7
20220628170036 79 207 5.0 9.0 0.00 0.00 0.00 51 1021.7
20220628165539 78 129 4.0 9.0 0.00 0.00 0.00 53 1021.7
20220628165038 78 220 4.0 9.0 0.00 0.00 0.00 53 1021.7
20220628164536 78 244 4.0 9.0 0.00 0.00 0.00 52 1021.8
20220628164034 78 181 4.0 9.0 0.00 0.00 0.00 53 1021.8
20220628163531 78 193 4.0 10.0 0.00 0.00 0.00 52 1021.9
20220628163050 78 217 5.0 10.0 0.00 0.00 0.00 52 1021.9
20220628162547 77 198 5.0 9.0 0.00 0.00 0.00 54 1021.9
20220628162042 77 202 5.0 9.0 0.00 0.00 0.00 53 1022.0
20220628161541 77 272 5.0 8.0 0.00 0.00 0.00 53 1022.1
20220628161038 77 191 4.0 8.0 0.00 0.00 0.00 56 1022.0
20220628160606 77 201 4.0 11.0 0.00 0.00 0.00 55 1022.2
20220628160045 77 198 6.0 11.0 0.00 0.00 0.00 54 1022.2
20220628155544 76 179 4.0 10.0 0.00 0.00 0.00 56 1022.1
20220628155041 76 198 5.0 10.0 0.00 0.00 0.00 55 1022.2
20220628154540 76 213 6.0 10.0 0.00 0.00 0.00 54 1022.2
20220628154037 76 229 3.0 9.0 0.00 0.00 0.00 56 1022.2
20220628153540 76 195 5.0 9.0 0.00 0.00 0.00 55 1022.4
20220628153038 75 195 3.0 10.0 0.00 0.00 0.00 55 1022.3
20220628152532 75 185 6.0 10.0 0.00 0.00 0.00 55 1022.4
20220628152049 75 232 5.0 9.0 0.00 0.00 0.00 54 1022.5
20220628151546 75 199 5.0 10.0 0.00 0.00 0.00 54 1022.5
20220628151044 74 188 4.0 10.0 0.00 0.00 0.00 55 1022.5
20220628150552 74 207 4.0 8.0 0.00 0.00 0.00 56 1022.7
20220628150048 74 181 4.0 10.0 0.00 0.00 0.00 58 1022.8
20220628145544 73 200 5.0 10.0 0.00 0.00 0.00 56 1023.0
20220628145043 73 223 4.0 7.0 0.00 0.00 0.00 58 1023.0
20220628144540 73 201 4.0 9.0 0.00 0.00 0.00 58 1023.0
20220628144036 72 193 5.0 7.0 0.00 0.00 0.00 60 1023.1
20220628143535 72 236 3.0 6.0 0.00 0.00 0.00 61 1023.0
20220628143033 71 188 3.0 5.0 0.00 0.00 0.00 64 1023.1
20220628142530 71 219 2.0 6.0 0.00 0.00 0.00 64 1023.1
20220628141540 70 191 3.0 6.0 0.00 0.00 0.00 65 1023.2
20220628141038 70 174 4.0 6.0 0.00 0.00 0.00 66 1023.3
20220628140550 69 164 1.0 4.0 0.00 0.00 0.00 67 1023.3
20220628140047 69 179 3.0 5.0 0.00 0.00 0.00 67 1023.3
20220628135546 68 233 2.0 5.0 0.00 0.00 0.00 67 1023.4
20220628135044 68 213 2.0 6.0 0.00 0.00 0.00 69 1023.4
20220628134543 67 162 2.0 5.0 0.00 0.00 0.00 69 1023.3
20220628134038 67 141 3.0 6.0 0.00 0.00 0.00 70 1023.2
20220628133535 66 179 3.0 6.0 0.00 0.00 0.00 70 1023.3
20220628133032 66 200 3.0 7.0 0.00 0.00 0.00 72 1023.2
20220628132531 66 207 3.0 7.0 0.00 0.00 0.00 72 1023.2
20220628132048 65 187 2.0 6.0 0.00 0.00 0.00 73 1023.3
20220628131545 65 200 2.0 5.0 0.00 0.00 0.00 74 1023.4
20220628130600 64 213 2.0 4.0 0.00 0.00 0.00 75 1023.7
20220628130040 64 200 1.0 3.0 0.00 0.00 0.00 76 1023.7
20220628125538 64 193 1.0 3.0 0.00 0.00 0.00 76 1023.7
20220628125035 63 193 2.0 6.0 0.00 0.00 0.00 77 1023.6
20220628124538 63 194 2.0 6.0 0.00 0.00 0.00 78 1023.6
20220628124035 63 192 2.0 4.0 0.00 0.00 0.00 78 1023.4
20220628123534 62 183 1.0 3.0 0.00 0.00 0.00 79 1023.5
20220628123032 62 183 1.0 3.0 0.00 0.00 0.00 79 1023.4
20220628122550 62 172 2.0 3.0 0.00 0.00 0.00 79 1023.5
20220628122047 62 183 1.0 4.0 0.00 0.00 0.00 78 1023.4
20220628121545 62 195 1.0 4.0 0.00 0.00 0.00 78 1023.5
20220628121043 62 180 2.0 4.0 0.00 0.00 0.00 78 1023.6
20220628120551 62 194 2.0 4.0 0.00 0.00 0.00 79 1023.6
20220628120031 61 181 1.0 4.0 0.00 0.00 0.00 79 1023.6
20220628115529 61 187 2.0 4.0 0.00 0.00 0.00 78 1023.6
20220628115049 61 186 0.0 2.0 0.00 0.00 0.00 78 1023.7
20220628114545 61 186 0.0 4.0 0.00 0.00 0.00 78 1023.6
20220628114043 61 191 1.0 3.0 0.00 0.00 0.00 77 1023.6
20220628113540 61 191 0.0 2.0 0.00 0.00 0.00 77 1023.7
20220628113038 62 191 0.0 4.0 0.00 0.00 0.00 77 1023.8
20220628112540 62 191 1.0 5.0 0.00 0.00 0.00 76 1023.8
20220628112036 62 186 1.0 3.0 0.00 0.00 0.00 76 1023.7
20220628111534 62 186 1.0 4.0 0.00 0.00 0.00 75 1023.7
20220628111032 62 179 1.0 4.0 0.00 0.00 0.00 75 1023.7
20220628110558 62 194 1.0 4.0 0.00 0.00 0.00 75 1023.7
20220628110036 62 201 2.0 5.0 0.00 0.00 0.00 74 1023.6
20220628105535 62 201 2.0 5.0 0.00 0.00 0.00 74 1023.7
20220628105032 62 179 3.0 6.0 0.00 0.00 0.00 73 1023.7
20220628104530 62 189 2.0 6.0 0.00 0.00 0.00 73 1023.7
20220628104048 62 194 1.0 4.0 0.00 0.00 0.00 72 1023.7
20220628103547 63 190 1.0 5.0 0.00 0.00 0.00 72 1023.6
20220628103040 63 203 2.0 5.0 0.00 0.00 0.00 71 1023.5
20220628102537 63 167 1.0 3.0 0.00 0.00 0.00 71 1023.6
20220628102034 63 172 1.0 3.0 0.00 0.00 0.00 70 1023.5
20220628101534 63 157 1.0 3.0 0.00 0.00 0.00 70 1023.5
20220628101035 63 181 1.0 4.0 0.00 0.00 0.00 70 1023.5
20220628100603 64 175 2.0 4.0 0.00 0.00 0.00 69 1023.4
20220628100043 64 191 2.0 3.0 0.00 0.00 0.00 69 1023.6
20220628095541 64 180 1.0 5.0 0.00 0.00 0.00 68 1023.5
20220628095039 64 190 2.0 5.0 0.00 0.00 0.00 68 1023.7
20220628094536 64 165 2.0 5.0 0.00 0.00 0.00 67 1023.6
20220628094039 64 193 2.0 5.0 0.00 0.00 0.00 67 1023.7
20220628093538 64 185 2.0 4.0 0.00 0.00 0.00 66 1023.7
20220628093035 64 194 2.0 6.0 0.00 0.00 0.00 66 1023.8
20220628092532 64 171 2.0 6.0 0.00 0.00 0.00 66 1023.9
20220628092027 64 188 3.0 4.0 0.00 0.00 0.00 65 1023.9
20220628091534 64 188 2.0 3.0 0.00 0.00 0.00 65 1023.7
20220628091031 65 196 2.0 5.0 0.00 0.00 0.00 65 1023.7
20220628090601 65 193 2.0 5.0 0.00 0.00 0.00 64 1023.7
20220628090041 65 182 2.0 4.0 0.00 0.00 0.00 64 1023.7
20220628085538 65 173 2.0 3.0 0.00 0.00 0.00 64 1023.7
20220628085036 65 188 2.0 4.0 0.00 0.00 0.00 63 1023.7
20220628084534 65 192 2.0 5.0 0.00 0.00 0.00 63 1023.7
20220628084036 65 193 2.0 5.0 0.00 0.00 0.00 63 1023.6
20220628083532 65 195 2.0 4.0 0.00 0.00 0.00 63 1023.6
20220628083030 65 201 1.0 4.0 0.00 0.00 0.00 64 1023.6
20220628082546 65 188 2.0 4.0 0.00 0.00 0.00 64 1023.7
20220628082044 65 188 2.0 5.0 0.00 0.00 0.00 64 1023.7
20220628081539 65 203 3.0 5.0 0.00 0.00 0.00 64 1023.6
20220628081036 65 181 3.0 6.0 0.00 0.00 0.00 64 1023.6
20220628080605 65 195 3.0 6.0 0.00 0.00 0.00 65 1023.5
20220628080044 65 214 3.0 5.0 0.00 0.00 0.00 65 1023.4
20220628075541 66 195 2.0 4.0 0.00 0.00 0.00 66 1023.5
20220628075038 66 188 2.0 5.0 0.00 0.00 0.00 66 1023.5
20220628074536 66 181 2.0 5.0 0.00 0.00 0.00 66 1023.4
20220628074033 66 193 2.0 6.0 0.00 0.00 0.00 65 1023.3
20220628073529 66 160 3.0 6.0 0.00 0.00 0.00 65 1023.3
20220628073048 66 188 2.0 4.0 0.00 0.00 0.00 65 1023.2
20220628072545 66 179 1.0 4.0 0.00 0.00 0.00 65 1023.2
20220628072044 66 176 2.0 5.0 0.00 0.00 0.00 65 1023.2
20220628071544 66 170 3.0 5.0 0.00 0.00 0.00 66 1023.3
20220628071042 66 184 2.0 5.0 0.00 0.00 0.00 66 1023.4
20220628070549 66 195 1.0 3.0 0.00 0.00 0.00 67 1023.4
20220628070049 66 193 2.0 4.0 0.00 0.00 0.00 67 1023.5
20220628065546 66 175 2.0 4.0 0.00 0.00 0.00 67 1023.5
20220628065044 66 191 2.0 4.0 0.00 0.00 0.00 68 1023.6
20220628064543 66 191 2.0 4.0 0.00 0.00 0.00 68 1023.6